Details From KOSC - Oscoda Wurtsmith
To KAPN - Alpena Co Rgnl
Flight Number -
Tags Generated
Created
Modified
Stats Distance 39 nm / 71 km
Max Altitude 0 ft / 0 m
Waypoints 2
Social Downloads 2
Likes 0
Share VATSIM

Download

Looking for another format? Having issues loading an existing format? Contact us
Advertisement - Login to hide

Notes

Generated

Route

KOSC KAPN

ID Type Via Altitude Latitude Longitude Leg Dist Tot Dist Heading (true) Name
O KOSC APT - 0 ft / 0 m 44.44304˚ -83.41326˚ - 0 nm - -
O KAPN APT - 0 ft / 0 m 45.07603˚ -83.56671˚ 38 nm 38 nm 350° / 350° -

Altitude Profile

Advertisement - Login to hide

KOSC

Details ICAO KOSC (OSC)
Name OSCODA WURTSMITH
Region United States
Timezone America/Detroit (UTC-4.0)
Stats Elevation 634 ft / 193 m (AMSL)
Location 44.451557° -83.394054°
Runways 1
Magnetic Variation 7.773° W

METAR

KOSC 250915Z AUTO 22007KT 10SM CLR 17/11 A2994 RMK AO2 T01660110

Decode

TAF

Not found

Departure Runways

ID Width Length Bearing (true) Bearing (mag) Surface Threshold Offset Overrun Length
06 200 ft / 61 m 11,781 ft / 3,591 m 58.13° 65.90° Asphalt 0 ft / 0 m 1,000 ft / 305 m
24 200 ft / 61 m 11,781 ft / 3,591 m 238.15° 245.92° Asphalt 0 ft / 0 m 1,000 ft / 305 m

KAPN

Details ICAO KAPN (APN)
Name ALPENA CO RGNL
Region United States
Timezone America/Detroit (UTC-4.0)
Stats Elevation 689 ft / 210 m (AMSL)
Location 45.078392° -83.559862°
Runways 2
Magnetic Variation 7.795° W

METAR

KAPN 250854Z AUTO 22006KT 10SM CLR 18/12 A2992 RMK AO2 SLP129 T01830117 56017

Decode

TAF

KAPN 250524Z 2506/2606 23004KT P6SM BKN200 FM250800 23006KT P6SM SCT200 WS013/26030KT FM251400 24008KT P6SM SCT070 FM260200 23004KT P6SM SCT120

Decode

Destination Runways

ID Width Length Bearing (true) Bearing (mag) Surface Threshold Offset Overrun Length
01 151 ft / 46 m 9,008 ft / 2,746 m 359.80° 7.60° Concrete 0 ft / 0 m 1,001 ft / 305 m
07 98 ft / 30 m 5,022 ft / 1,531 m 59.72° 67.52° Concrete 0 ft / 0 m 0 ft / 0 m
19 151 ft / 46 m 9,008 ft / 2,746 m 179.80° 187.60° Concrete 0 ft / 0 m 1,001 ft / 305 m
25 98 ft / 30 m 5,022 ft / 1,531 m 239.73° 247.53° Concrete 0 ft / 0 m 0 ft / 0 m

Approach Navaids

Runway Type Ident Frequency Range Bearing (true) Bearing (mag) Slope Elevation
01 Localiser IAPN 109.70 MHz 18 nm / 33 km 359.80° 7.60° - 689 ft / 210 m (AMSL)
01 Glidescope IAPN 109.70 MHz 10 nm / 19 km 359.80° 7.60° 3.00° 685 ft / 209 m (AMSL)